TimeEDT,TemperatureF,Dew PointF,Humidity,Sea Level PressureIn,VisibilityMPH,Wind Direction,Wind SpeedMPH,Gust SpeedMPH,PrecipitationIn,Events,Conditions,WindDirDegrees,DateUTC
12:56 AM,77.0,69.1,76,30.14,10.0,Calm,Calm,-,N/A,,Mostly Cloudy,0,2013-09-11 04:56:00
1:56 AM,75.0,70.0,84,30.13,9.0,SE,4.6,-,N/A,,Overcast,130,2013-09-11 05:56:00
2:56 AM,75.0,69.1,82,30.13,10.0,South,5.8,-,N/A,,Overcast,180,2013-09-11 06:56:00
3:56 AM,75.0,69.1,82,30.13,9.0,SE,3.5,-,N/A,,Mostly Cloudy,140,2013-09-11 07:56:00
4:56 AM,73.9,69.1,85,30.13,9.0,South,4.6,-,N/A,,Mostly Cloudy,190,2013-09-11 08:56:00
5:56 AM,73.0,68.0,84,30.14,9.0,SW,5.8,-,N/A,,Overcast,220,2013-09-11 09:56:00
6:56 AM,72.0,69.1,91,30.15,8.0,South,4.6,-,N/A,,Mostly Cloudy,180,2013-09-11 10:56:00
7:56 AM,72.0,69.1,91,30.16,5.0,SSW,5.8,-,N/A,,Mostly Cloudy,210,2013-09-11 11:56:00
8:56 AM,73.0,70.0,90,30.17,6.0,SW,4.6,-,N/A,,Overcast,220,2013-09-11 12:56:00
9:56 AM,78.1,70.0,76,30.17,7.0,SSW,6.9,-,N/A,,Overcast,210,2013-09-11 13:56:00
10:56 AM,82.0,71.1,69,30.17,7.0,SW,4.6,-,N/A,,Overcast,220,2013-09-11 14:56:00
11:56 AM,81.0,72.0,74,30.15,7.0,SW,4.6,-,0.03,,Overcast,220,2013-09-11 15:56:00
12:56 PM,82.0,72.0,71,30.14,6.0,South,9.2,-,N/A,,Haze,180,2013-09-11 16:56:00
1:56 PM,84.9,73.0,67,30.12,6.0,South,5.8,-,0.00,,Haze,180,2013-09-11 17:56:00
2:56 PM,87.1,70.0,57,30.09,7.0,WSW,6.9,-,N/A,,Scattered Clouds,240,2013-09-11 18:56:00
3:56 PM,89.1,73.0,59,30.07,6.0,South,6.9,-,N/A,,Haze,190,2013-09-11 19:56:00
4:56 PM,90.0,72.0,55,30.06,6.0,SSW,8.1,-,N/A,,Haze,200,2013-09-11 20:56:00
5:56 PM,89.1,71.1,55,30.05,7.0,SSW,11.5,-,N/A,,Scattered Clouds,200,2013-09-11 21:56:00
6:56 PM,87.1,72.0,61,30.06,6.0,SSW,10.4,-,N/A,,Haze,210,2013-09-11 22:56:00
7:56 PM,84.0,73.0,69,30.06,6.0,SSW,12.7,-,N/A,,Haze,210,2013-09-11 23:56:00
8:56 PM,81.0,71.1,72,30.07,8.0,SSW,9.2,-,N/A,,Scattered Clouds,200,2013-09-12 00:56:00
9:56 PM,78.1,71.1,79,30.08,8.0,SW,5.8,-,N/A,,Scattered Clouds,230,2013-09-12 01:56:00
10:56 PM,78.1,70.0,76,30.07,8.0,SSW,6.9,-,N/A,,Partly Cloudy,210,2013-09-12 02:56:00
11:56 PM,75.9,70.0,82,30.05,8.0,SSW,5.8,-,N/A,,Partly Cloudy,210,2013-09-12 03:56:00